User: anonymous   Login
Location: Washington
(38.8950°N, 77.0370°W)
Time: 04:24:15
(UTC-04:00)
Language:

IDEFIX/ARIANE 42P - Orbit

View from above orbital plane
View from above orbital plane
View from above satellite
View from above satellite

Ground track
Ground track

The orbit data is extracted from the following two-line orbital elements,

1 27422U 02021B   14302.74870339  .00000213  00000-0  10015-3 0  6301
2 27422 098.2854 338.7391 0012309 200.0254 271.5706 14.29072845649354
Epoch (UTC): 29 October 2014 17:58:07
Eccentricity: 0.0012309
inclination: 98.2854°
perigee height: 786 km
apogee height: 803 km
right ascension of ascending node: 338.7391°
argument of perigee: 200.0254°
revolutions per day: 14.29072845
mean anomaly at epoch: 271.5706°
orbit number at epoch: 64935

The dashed part of the orbit path shows where the satellite is in the earth's shadow,  

DLR